Time,TemperatureF,DewpointF,PressureIn,WindDirection,WindDirectionDegrees,WindSpeedMPH,WindSpeedGustMPH,Humidity,HourlyPrecipIn,Conditions,Clouds,dailyrainin,SoftwareType,DateUTC
2013-04-06 00:05:00,43.0,-99.9,29.96,North,8,17.0,21.0,-999,-99.99,,,-99.99,,2013-04-06 04:05:00,
2013-04-06 00:14:00,43.0,-99.9,-100.00,North,5,18.0,25.0,-999,-99.99,,,-99.99,,2013-04-06 04:14:00,
2013-04-06 00:23:00,43.0,-99.9,-100.00,North,360,23.0,31.0,-999,-99.99,,,-99.99,,2013-04-06 04:23:00,
2013-04-06 00:33:00,42.0,-99.9,29.97,North,2,22.0,30.0,-999,-99.99,,,-99.99,,2013-04-06 04:33:00,
2013-04-06 00:43:00,42.0,-99.9,-100.00,NNE,13,17.0,24.0,-999,-99.99,,,-99.99,,2013-04-06 04:43:00,
2013-04-06 00:53:00,42.0,-99.9,-100.00,North,10,17.0,22.0,-999,-99.99,,,-99.99,,2013-04-06 04:53:00,
2013-04-06 01:02:00,42.0,-99.9,-100.00,North,10,15.0,20.0,-999,-99.99,,,-99.99,,2013-04-06 05:02:00,
2013-04-06 01:14:00,42.0,-99.9,-100.00,NNE,15,14.0,20.0,-999,-99.99,,,-99.99,,2013-04-06 05:14:00,
2013-04-06 01:23:00,41.0,-99.9,-100.00,North,9,12.0,21.0,-999,-99.99,,,-99.99,,2013-04-06 05:23:00,
2013-04-06 01:33:00,41.0,-99.9,29.99,NNE,13,10.0,17.0,-999,-99.99,,,-99.99,,2013-04-06 05:33:00,
2013-04-06 01:43:00,41.0,-99.9,-100.00,NNE,13,14.0,19.0,-999,-99.99,,,-99.99,,2013-04-06 05:43:00,
2013-04-06 01:53:00,41.0,-99.9,-100.00,North,8,16.0,19.0,-999,-99.99,,,-99.99,,2013-04-06 05:53:00,
2013-04-06 02:03:00,40.0,-99.9,30.00,NNE,14,11.0,22.0,-999,-99.99,,,-99.99,,2013-04-06 06:03:00,
2013-04-06 02:13:00,40.0,-99.9,-100.00,North,5,15.0,21.0,-999,-99.99,,,-99.99,,2013-04-06 06:13:00,
2013-04-06 02:23:00,40.0,-99.9,-100.00,North,353,19.0,26.0,-999,-99.99,,,-99.99,,2013-04-06 06:23:00,
2013-04-06 02:33:00,40.0,-99.9,30.02,NNW,348,16.0,26.0,-999,-99.99,,,-99.99,,2013-04-06 06:33:00,
2013-04-06 02:43:00,40.0,-99.9,-100.00,NNW,346,15.0,19.0,-999,-99.99,,,-99.99,,2013-04-06 06:43:00,
2013-04-06 02:53:00,39.0,-99.9,-100.00,North,359,15.0,19.0,-999,-99.99,,,-99.99,,2013-04-06 06:53:00,
2013-04-06 03:05:00,39.0,-99.9,-100.00,North,354,13.0,21.0,-999,-99.99,,,-99.99,,2013-04-06 07:05:00,
2013-04-06 03:12:00,39.0,-99.9,-100.00,North,349,15.0,21.0,-999,-99.99,,,-99.99,,2013-04-06 07:12:00,
2013-04-06 03:23:00,39.0,-99.9,-100.00,NNW,348,14.0,23.0,-999,-99.99,,,-99.99,,2013-04-06 07:23:00,
2013-04-06 03:34:00,39.0,-99.9,30.04,North,351,13.0,19.0,-999,-99.99,,,-99.99,,2013-04-06 07:34:00,
2013-04-06 03:45:00,39.0,-99.9,-100.00,North,356,12.0,18.0,-999,-99.99,,,-99.99,,2013-04-06 07:45:00,
2013-04-06 03:53:00,38.0,-99.9,-100.00,North,6,14.0,20.0,-999,-99.99,,,-99.99,,2013-04-06 07:53:00,
2013-04-06 04:02:00,38.0,-99.9,30.05,North,351,15.0,20.0,-999,-99.99,,,-99.99,,2013-04-06 08:02:00,
2013-04-06 04:13:00,38.0,-99.9,-100.00,North,359,13.0,19.0,-999,-99.99,,,-99.99,,2013-04-06 08:13:00,
2013-04-06 04:22:00,38.0,-99.9,-100.00,North,4,13.0,21.0,-999,-99.99,,,-99.99,,2013-04-06 08:22:00,
2013-04-06 04:32:00,38.0,-99.9,-100.00,North,1,15.0,21.0,-999,-99.99,,,-99.99,,2013-04-06 08:32:00,
2013-04-06 04:43:00,38.0,-99.9,-100.00,North,354,12.0,18.0,-999,-99.99,,,-99.99,,2013-04-06 08:43:00,
2013-04-06 04:52:00,38.0,-99.9,-100.00,North,4,14.0,20.0,-999,-99.99,,,-99.99,,2013-04-06 08:52:00,
2013-04-06 05:02:00,38.0,-99.9,30.08,North,350,13.0,21.0,-999,-99.99,,,-99.99,,2013-04-06 09:02:00,
2013-04-06 05:13:00,37.0,-99.9,-100.00,North,352,12.0,16.0,-999,-99.99,,,-99.99,,2013-04-06 09:13:00,
2013-04-06 05:22:00,37.0,-99.9,-100.00,North,357,11.0,16.0,-999,-99.99,,,-99.99,,2013-04-06 09:22:00,
2013-04-06 05:33:00,37.0,-99.9,-100.00,North,351,13.0,20.0,-999,-99.99,,,-99.99,,2013-04-06 09:33:00,
2013-04-06 05:43:00,37.0,-99.9,-100.00,North,359,12.0,17.0,-999,-99.99,,,-99.99,,2013-04-06 09:43:00,
2013-04-06 05:54:00,37.0,-99.9,-100.00,North,2,10.0,15.0,-999,-99.99,,,-99.99,,2013-04-06 09:54:00,
2013-04-06 06:04:00,37.0,-99.9,30.12,North,10,11.0,15.0,-999,-99.99,,,-99.99,,2013-04-06 10:04:00,
2013-04-06 06:13:00,37.0,-99.9,-100.00,North,6,11.0,15.0,-999,-99.99,,,-99.99,,2013-04-06 10:13:00,
2013-04-06 06:23:00,37.0,-99.9,-100.00,North,359,11.0,15.0,-999,-99.99,,,-99.99,,2013-04-06 10:23:00,
2013-04-06 06:34:00,37.0,-99.9,30.13,NNW,348,12.0,16.0,-999,-99.99,,,-99.99,,2013-04-06 10:34:00,
2013-04-06 06:43:00,37.0,-99.9,-100.00,North,349,13.0,15.0,-999,-99.99,,,-99.99,,2013-04-06 10:43:00,
2013-04-06 06:54:00,37.0,-99.9,-100.00,North,4,11.0,15.0,-999,-99.99,,,-99.99,,2013-04-06 10:54:00,
2013-04-06 07:03:00,37.0,-99.9,-100.00,North,10,12.0,15.0,-999,-99.99,,,-99.99,,2013-04-06 11:03:00,
2013-04-06 07:13:00,37.0,-99.9,-100.00,NNE,15,10.0,16.0,-999,-99.99,,,-99.99,,2013-04-06 11:13:00,
2013-04-06 07:23:00,37.0,-99.9,-100.00,NNE,14,10.0,14.0,-999,-99.99,,,-99.99,,2013-04-06 11:23:00,
2013-04-06 07:33:00,37.0,-99.9,30.17,NNE,16,8.0,11.0,-999,-99.99,,,-99.99,,2013-04-06 11:33:00,
2013-04-06 07:43:00,37.0,-99.9,-100.00,NNE,27,8.0,12.0,-999,-99.99,,,-99.99,,2013-04-06 11:43:00,
2013-04-06 07:53:00,37.0,-99.9,-100.00,NE,34,8.0,12.0,-999,-99.99,,,-99.99,,2013-04-06 11:53:00,
2013-04-06 08:02:00,37.0,-99.9,30.20,NNE,27,7.0,16.0,-999,-99.99,,,-99.99,,2013-04-06 12:02:00,
2013-04-06 08:13:00,37.0,-99.9,-100.00,NNE,20,9.0,13.0,-999,-99.99,,,-99.99,,2013-04-06 12:13:00,
2013-04-06 08:22:00,37.0,-99.9,-100.00,NNE,20,7.0,13.0,-999,-99.99,,,-99.99,,2013-04-06 12:22:00,
2013-04-06 08:33:00,37.0,-99.9,30.21,NNE,24,11.0,17.0,-999,-99.99,,,-99.99,,2013-04-06 12:33:00,
2013-04-06 08:44:00,38.0,-99.9,-100.00,NNE,25,13.0,18.0,-999,-99.99,,,-99.99,,2013-04-06 12:44:00,
2013-04-06 08:53:00,38.0,-99.9,-100.00,NNE,14,14.0,23.0,-999,-99.99,,,-99.99,,2013-04-06 12:53:00,
2013-04-06 09:03:00,38.0,-99.9,30.22,NNE,17,15.0,23.0,-999,-99.99,,,-99.99,,2013-04-06 13:03:00,
2013-04-06 09:13:00,38.0,-99.9,-100.00,NNE,15,16.0,23.0,-999,-99.99,,,-99.99,,2013-04-06 13:13:00,
2013-04-06 09:24:00,38.0,-99.9,-100.00,NNE,15,15.0,20.0,-999,-99.99,,,-99.99,,2013-04-06 13:24:00,
2013-04-06 09:33:00,38.0,-99.9,30.24,NNE,15,11.0,17.0,-999,-99.99,,,-99.99,,2013-04-06 13:33:00,
2013-04-06 09:44:00,38.0,-99.9,-100.00,NE,37,8.0,13.0,-999,-99.99,,,-99.99,,2013-04-06 13:44:00,
2013-04-06 09:54:00,38.0,-99.9,-100.00,NE,34,5.0,11.0,-999,-99.99,,,-99.99,,2013-04-06 13:54:00,
2013-04-06 10:05:00,38.0,-99.9,30.25,NE,35,6.0,15.0,-999,-99.99,,,-99.99,,2013-04-06 14:05:00,
2013-04-06 10:13:00,38.0,-99.9,-100.00,NNE,29,6.0,11.0,-999,-99.99,,,-99.99,,2013-04-06 14:13:00,
2013-04-06 10:23:00,38.0,-99.9,-100.00,NE,49,7.0,10.0,-999,-99.99,,,-99.99,,2013-04-06 14:23:00,
2013-04-06 10:33:00,39.0,-99.9,30.26,NNE,25,9.0,13.0,-999,-99.99,,,-99.99,,2013-04-06 14:33:00,
2013-04-06 10:43:00,39.0,-99.9,-100.00,NE,35,9.0,12.0,-999,-99.99,,,-99.99,,2013-04-06 14:43:00,
2013-04-06 10:54:00,40.0,-99.9,-100.00,NNE,19,7.0,11.0,-999,-99.99,,,-99.99,,2013-04-06 14:54:00,
2013-04-06 11:02:00,40.0,-99.9,30.27,NNE,20,9.0,12.0,-999,-99.99,,,-99.99,,2013-04-06 15:02:00,
2013-04-06 11:12:00,40.0,-99.9,-100.00,NNE,15,8.0,15.0,-999,-99.99,,,-99.99,,2013-04-06 15:12:00,
2013-04-06 11:23:00,40.0,-99.9,-100.00,NNE,16,10.0,20.0,-999,-99.99,,,-99.99,,2013-04-06 15:23:00,
2013-04-06 11:34:00,40.0,-99.9,-100.00,North,11,16.0,21.0,-999,-99.99,,,-99.99,,2013-04-06 15:34:00,
2013-04-06 11:44:00,40.0,-99.9,-100.00,NNE,16,10.0,18.0,-999,-99.99,,,-99.99,,2013-04-06 15:44:00,
2013-04-06 11:54:00,41.0,-99.9,-100.00,NNE,18,10.0,18.0,-999,-99.99,,,-99.99,,2013-04-06 15:54:00,
2013-04-06 12:05:00,41.0,-99.9,30.28,NNE,25,11.0,17.0,-999,-99.99,,,-99.99,,2013-04-06 16:05:00,
2013-04-06 12:18:00,41.0,-99.9,-100.00,NNE,16,12.0,19.0,-999,-99.99,,,-99.99,,2013-04-06 16:18:00,
2013-04-06 12:23:00,41.0,-99.9,-100.00,NNE,14,13.0,16.0,-999,-99.99,,,-99.99,,2013-04-06 16:23:00,
2013-04-06 12:33:00,41.0,-99.9,30.27,North,10,8.0,15.0,-999,-99.99,,,-99.99,,2013-04-06 16:33:00,
2013-04-06 12:43:00,42.0,-99.9,-100.00,NNE,18,7.0,14.0,-999,-99.99,,,-99.99,,2013-04-06 16:43:00,
2013-04-06 12:53:00,42.0,-99.9,-100.00,NNE,16,10.0,14.0,-999,-99.99,,,-99.99,,2013-04-06 16:53:00,
2013-04-06 13:03:00,42.0,-99.9,30.27,North,3,7.0,11.0,-999,-99.99,,,-99.99,,2013-04-06 17:03:00,
2013-04-06 13:13:00,42.0,-99.9,-100.00,NNE,20,5.0,9.0,-999,-99.99,,,-99.99,,2013-04-06 17:13:00,
2013-04-06 13:23:00,43.0,-99.9,-100.00,North,-999,9.0,13.0,-999,-99.99,,,-99.99,,2013-04-06 17:23:00,
2013-04-06 13:33:00,43.0,-99.9,30.27,NNE,17,6.0,11.0,-999,-99.99,,,-99.99,,2013-04-06 17:33:00,
2013-04-06 13:43:00,44.0,-99.9,-100.00,NNE,12,6.0,12.0,-999,-99.99,,,-99.99,,2013-04-06 17:43:00,
2013-04-06 13:53:00,44.0,-99.9,-100.00,NNE,23,5.0,9.0,-999,-99.99,,,-99.99,,2013-04-06 17:53:00,
2013-04-06 14:04:00,44.0,-99.9,-100.00,North,11,4.0,7.0,-999,-99.99,,,-99.99,,2013-04-06 18:04:00,
2013-04-06 14:13:00,45.0,-99.9,-100.00,North,358,1.0,6.0,-999,-99.99,,,-99.99,,2013-04-06 18:13:00,
2013-04-06 14:24:00,45.0,-99.9,-100.00,NE,34,6.0,9.0,-999,-99.99,,,-99.99,,2013-04-06 18:24:00,
2013-04-06 14:33:00,45.0,-99.9,30.26,NE,54,2.0,9.0,-999,-99.99,,,-99.99,,2013-04-06 18:33:00,
2013-04-06 14:43:00,43.0,-99.9,-100.00,SW,235,5.0,6.0,-999,-99.99,,,-99.99,,2013-04-06 18:43:00,
2013-04-06 14:53:00,44.0,-99.9,-100.00,SW,229,3.0,4.0,-999,-99.99,,,-99.99,,2013-04-06 18:53:00,
2013-04-06 15:03:00,44.0,-99.9,30.26,SW,217,2.0,4.0,-999,-99.99,,,-99.99,,2013-04-06 19:03:00,
2013-04-06 15:12:00,46.0,-99.9,-100.00,East,92,0.0,1.0,-999,-99.99,,,-99.99,,2013-04-06 19:12:00,
2013-04-06 15:23:00,47.0,-99.9,-100.00,South,174,1.0,1.0,-999,-99.99,,,-99.99,,2013-04-06 19:23:00,
2013-04-06 15:33:00,49.0,-99.9,30.25,SSW,209,-999.0,1.0,-999,-99.99,,,-99.99,,2013-04-06 19:33:00,
2013-04-06 15:43:00,50.0,-99.9,-100.00,South,185,-999.0,2.0,-999,-99.99,,,-99.99,,2013-04-06 19:43:00,
2013-04-06 15:54:00,49.0,-99.9,-100.00,South,186,-999.0,2.0,-999,-99.99,,,-99.99,,2013-04-06 19:54:00,
2013-04-06 16:03:00,49.0,-99.9,30.24,South,189,1.0,2.0,-999,-99.99,,,-99.99,,2013-04-06 20:03:00,
2013-04-06 16:13:00,49.0,-99.9,-100.00,South,184,0.0,1.0,-999,-99.99,,,-99.99,,2013-04-06 20:13:00,
2013-04-06 16:23:00,51.0,-99.9,-100.00,WNW,295,-999.0,0.0,-999,-99.99,,,-99.99,,2013-04-06 20:23:00,
2013-04-06 16:32:00,51.0,-99.9,-100.00,WNW,295,-999.0,0.0,-999,-99.99,,,-99.99,,2013-04-06 20:32:00,
2013-04-06 16:42:00,48.0,-99.9,-100.00,WSW,238,2.0,4.0,-999,-99.99,,,-99.99,,2013-04-06 20:42:00,
2013-04-06 16:53:00,49.0,-99.9,-100.00,SSE,153,1.0,2.0,-999,-99.99,,,-99.99,,2013-04-06 20:53:00,
2013-04-06 17:03:00,49.0,-99.9,30.24,SE,139,1.0,2.0,-999,-99.99,,,-99.99,,2013-04-06 21:03:00,
2013-04-06 17:14:00,49.0,-99.9,-100.00,South,185,3.0,5.0,-999,-99.99,,,-99.99,,2013-04-06 21:14:00,
2013-04-06 17:23:00,49.0,-99.9,-100.00,SW,223,4.0,6.0,-999,-99.99,,,-99.99,,2013-04-06 21:23:00,
2013-04-06 17:33:00,49.0,-99.9,30.24,SW,230,4.0,5.0,-999,-99.99,,,-99.99,,2013-04-06 21:33:00,
2013-04-06 17:44:00,46.0,-99.9,-100.00,SW,214,15.0,17.0,-999,-99.99,,,-99.99,,2013-04-06 21:44:00,
2013-04-06 17:53:00,45.0,-99.9,-100.00,SW,224,15.0,17.0,-999,-99.99,,,-99.99,,2013-04-06 21:53:00,
2013-04-06 18:03:00,45.0,-99.9,30.25,SSW,208,15.0,17.0,-999,-99.99,,,-99.99,,2013-04-06 22:03:00,
2013-04-06 18:14:00,45.0,-99.9,-100.00,South,191,13.0,15.0,-999,-99.99,,,-99.99,,2013-04-06 22:14:00,
2013-04-06 18:23:00,45.0,-99.9,-100.00,SSW,196,14.0,15.0,-999,-99.99,,,-99.99,,2013-04-06 22:23:00,
2013-04-06 18:35:00,45.0,-99.9,30.26,SSW,194,15.0,18.0,-999,-99.99,,,-99.99,,2013-04-06 22:35:00,
2013-04-06 18:44:00,44.0,-99.9,-100.00,SSW,200,16.0,18.0,-999,-99.99,,,-99.99,,2013-04-06 22:44:00,
2013-04-06 18:55:00,44.0,-99.9,-100.00,SSW,202,15.0,17.0,-999,-99.99,,,-99.99,,2013-04-06 22:55:00,
2013-04-06 19:04:00,44.0,-99.9,-100.00,SSW,192,13.0,15.0,-999,-99.99,,,-99.99,,2013-04-06 23:04:00,
2013-04-06 19:14:00,44.0,-99.9,-100.00,SSW,192,14.0,15.0,-999,-99.99,,,-99.99,,2013-04-06 23:14:00,
2013-04-06 19:24:00,43.0,-99.9,-100.00,SSW,201,14.0,16.0,-999,-99.99,,,-99.99,,2013-04-06 23:24:00,
2013-04-06 19:34:00,43.0,-99.9,30.28,SSW,199,13.0,15.0,-999,-99.99,,,-99.99,,2013-04-06 23:34:00,
2013-04-06 19:43:00,43.0,-99.9,-100.00,SSW,198,11.0,15.0,-999,-99.99,,,-99.99,,2013-04-06 23:43:00,
2013-04-06 19:54:00,43.0,-99.9,-100.00,SSW,201,14.0,16.0,-999,-99.99,,,-99.99,,2013-04-06 23:54:00,
2013-04-06 20:03:00,42.0,-99.9,30.28,SSW,203,13.0,17.0,-999,-99.99,,,-99.99,,2013-04-07 00:03:00,
2013-04-06 20:13:00,42.0,-99.9,-100.00,SSW,201,12.0,15.0,-999,-99.99,,,-99.99,,2013-04-07 00:13:00,
2013-04-06 20:23:00,42.0,-99.9,-100.00,SSW,192,12.0,15.0,-999,-99.99,,,-99.99,,2013-04-07 00:23:00,
2013-04-06 20:33:00,42.0,-99.9,-100.00,South,190,10.0,14.0,-999,-99.99,,,-99.99,,2013-04-07 00:33:00,
2013-04-06 20:44:00,42.0,-99.9,-100.00,SSW,199,13.0,15.0,-999,-99.99,,,-99.99,,2013-04-07 00:44:00,
2013-04-06 20:53:00,42.0,-99.9,-100.00,SSW,192,9.0,11.0,-999,-99.99,,,-99.99,,2013-04-07 00:53:00,
2013-04-06 21:03:00,42.0,-99.9,30.29,South,190,10.0,12.0,-999,-99.99,,,-99.99,,2013-04-07 01:03:00,
2013-04-06 21:12:00,42.0,-99.9,-100.00,SSW,201,11.0,13.0,-999,-99.99,,,-99.99,,2013-04-07 01:12:00,
2013-04-06 21:24:00,42.0,-99.9,-100.00,South,189,12.0,13.0,-999,-99.99,,,-99.99,,2013-04-07 01:24:00,
2013-04-06 21:33:00,42.0,-99.9,-100.00,SSW,199,12.0,15.0,-999,-99.99,,,-99.99,,2013-04-07 01:33:00,
2013-04-06 21:43:00,41.0,-99.9,-100.00,SSW,194,11.0,13.0,-999,-99.99,,,-99.99,,2013-04-07 01:43:00,
2013-04-06 21:54:00,41.0,-99.9,-100.00,SSW,192,11.0,13.0,-999,-99.99,,,-99.99,,2013-04-07 01:54:00,
2013-04-06 22:03:00,41.0,-99.9,30.29,South,187,10.0,13.0,-999,-99.99,,,-99.99,,2013-04-07 02:03:00,
2013-04-06 22:13:00,41.0,-99.9,-100.00,South,190,9.0,12.0,-999,-99.99,,,-99.99,,2013-04-07 02:13:00,
2013-04-06 22:24:00,41.0,-99.9,-100.00,South,190,10.0,12.0,-999,-99.99,,,-99.99,,2013-04-07 02:24:00,
2013-04-06 22:33:00,41.0,-99.9,30.29,SSW,194,11.0,13.0,-999,-99.99,,,-99.99,,2013-04-07 02:33:00,
2013-04-06 22:43:00,41.0,-99.9,-100.00,South,189,11.0,12.0,-999,-99.99,,,-99.99,,2013-04-07 02:43:00,
2013-04-06 22:53:00,41.0,-99.9,-100.00,SSW,192,10.0,11.0,-999,-99.99,,,-99.99,,2013-04-07 02:53:00,
2013-04-06 23:03:00,41.0,-99.9,-100.00,South,191,10.0,13.0,-999,-99.99,,,-99.99,,2013-04-07 03:03:00,
2013-04-06 23:13:00,41.0,-99.9,-100.00,SSW,200,11.0,13.0,-999,-99.99,,,-99.99,,2013-04-07 03:13:00,
2013-04-06 23:23:00,41.0,-99.9,-100.00,SSW,210,10.0,11.0,-999,-99.99,,,-99.99,,2013-04-07 03:23:00,
2013-04-06 23:35:00,41.0,-99.9,30.30,SSW,200,10.0,11.0,-999,-99.99,,,-99.99,,2013-04-07 03:35:00,
2013-04-06 23:44:00,41.0,-99.9,-100.00,SSW,203,10.0,13.0,-999,-99.99,,,-99.99,,2013-04-07 03:44:00,
2013-04-06 23:55:00,41.0,-99.9,-100.00,SSW,202,10.0,14.0,-999,-99.99,,,-99.99,,2013-04-07 03:55:00,